Location: Cointrin
(46.2167°N, 6.1167°E)
Time: 15:54:52
(UTC+00:00)

Resurs 01 Rocket - Pass Details

Date: 08 February 2023
Orbit: 632 x 643 km, 97.9° (Epoch: 21 March)

Event Time Altitude Azimuth Distance (km) Brightness Sun altitude
Exits shadow 19:17:36 11° 5° (N) 2,005 4.2 -25.8°
Drops below altitude 10° 19:17:44 10° 4° (N) 2,050 4.2 -25.9°
Sets 19:20:06 0° 355° (N) 2,966 5.2 -26.3°
